Location: *
(51.2167°N, 10.0667°E)
Time: 08:14:03
(UTC+00:00)

COBE Rocket - Pass Details

Date: 12 December 2019
Orbit: 680 x 782 km, 97.1° (Epoch: 20 January)

Event Time Altitude Azimuth Distance (km) Brightness Sun altitude
Exits shadow 16:05:42 - 20° (NNE) 2,910 6.6 -7.9°
Reaches altitude 10° 16:07:46 10° 29° (NNE) 2,136 5.8 -8.2°
Maximum altitude 16:12:00 33° 94° (E) 1,147 4.5 -8.8°
Drops below altitude 10° 16:16:14 10° 159° (SSE) 2,146 6.4 -9.4°
Sets 16:18:41 0° 169° (SSE) 3,071 7.3 -9.8°
